Location: Lugrin
(46.4033°N, 6.6674°E)
Time: 09:47:52
(UTC+00:00)

N. Korean satellite - Pass Details

Date: 28 November 2020
Orbit: 453 x 502 km, 97.2° (Epoch: 16 January)

Event Time Altitude Azimuth Distance (km) Brightness Sun altitude
Rises 05:27:41 0° 7° (N) 2,549 10.1 -14.3°
Reaches altitude 10° 05:29:46 10° 3° (N) 1,673 9.1 -13.9°
Maximum altitude 05:33:17 52° 286° (WNW) 614 6.7 -13.3°
Drops below altitude 10° 05:36:49 10° 210° (SSW) 1,685 9.2 -12.8°
Sets 05:38:55 0° 205° (SSW) 2,568 10.2 -12.4°
